CAPE
0 0 0 0 0 0 0 0 0 0 0 0 0 0 0 0 0 0 0 0 0 0 0 0 4 126 556 1010 2139 2364 2410 2113 1375 1555 2117 1657 1183 1606 1399 1220 1419 1185 1487 1656
0 0 0 0 0 0 0 0 0 0 0 0 0 0 0 0 0 0 0 0 0 0 0 0 10 235 821 1111 2213 2417 2795 2338 2116 1484 1426 1414 1519 1630 1054 1260 1230 1350 1673 1736
0 0 0 0 0 0 0 0 0 0 0 0 0 0 0 0 0 0 0 0 0 0 0 0 0 439 952 1508 2407 2427 2893 2675 2403 2241 1587 1496 1415 1718 1368 1331 1397 1412 1748 1837
0 0 0 0 0 0 0 0 0 0 0 0 0 0 0 0 0 0 0 0 0 0 0 0 0 0 423 951 1451 1569 2310 2879 2556 2382 1995 1568 1211 1524 973 1217 1242 1439 1661 1662
0 0 0 0 0 0 0 0 0 0 0 0 0 0 0 0 1 0 0 0 0 0 0 0 1 3 48 559 1200 1431 1424 2088 2758 2395 2236 1904 1357 1545 1231 1372 1464 1759 1647 1011
0 0 0 0 0 0 0 0 0 0 0 0 0 0 0 0 7 3 0 0 2 5 1 0 106 351 337 871 1928 1767 1802 1390 2380 2303 2338 2113 1840 1341 1591 1538 1544 1409 915 837
0 0 0 0 0 0 0 0 0 2 2 0 0 0 0 22 0 0 0 0 2 2 3 53 191 282 349 1241 1376 1038 1376 2115 2169 1887 1885 2085 1846 1495 1579 1219 1112 870 878 545
0 0 0 0 0 0 0 0 8 0 23 3 2 0 0 5 0 0 0 0 0 0 23 47 87 261 406 879 1030 675 831 1182 1514 1544 1626 1658 1493 1634 1576 1447 988 785 439 92
2 0 0 0 0 0 0 8 0 5 0 0 0 0 0 0 0 1 0 0 0 0 0 0 72 336 632 830 1025 750 664 675 883 936 1098 1232 1565 1719 1452 1444 1050 552 57 0
0 0 0 0 0 0 0 0 13 4 0 0 1 2 9 0 0 0 0 0 0 0 0 0 0 399 507 775 901 841 670 776 828 850 1007 1071 1704 1444 1680 1225 809 145 0 0
8 7 0 0 0 0 0 0 0 1 0 0 0 0 2 9 0 0 30 108 10 0 0 0 0 25 304 708 1131 1221 1029 978 1009 957 1202 1343 1640 1414 1372 974 258 14 5 1
11 24 0 0 0 0 0 0 2 68 41 31 38 0 0 3 47 38 32 0 0 0 0 0 0 0 52 237 307 821 1466 1338 1396 1533 1324 1196 1206 1100 1079 547 134 59 0 0
16 20 0 0 0 0 0 0 0 0 0 0 0 0 0 0 0 0 0 0 0 0 0 0 0 0 0 0 44 147 531 1220 1300 1275 1216 973 892 346 64 27 2 0 0 0
27 31 0 0 0 0 0 0 10 38 12 8 1 0 0 0 0 2 0 0 0 0 0 0 0 0 0 0 0 4 0 89 697 493 255 199 49 0 0 0 0 0 0 0
12 20 18 0 0 0 0 0 0 0 0 23 0 0 0 0 4 8 11 0 0 1 4 0 0 0 0 0 0 0 0 0 32 20 19 1 0 0 0 0 0 0 0 0
4 0 0 0 0 0 0 0 0 0 0 0 0 0 0 0 0 0 0 0 0 3 6 0 10 17 12 0 0 0 0 0 0 0 0 0 0 0 0 0 0 0 0 0
10 0 12 0 0 0 0 0 0 0 0 0 0 0 0 0 0 0 0 0 0 11 9 12 7 0 0 0 0 0 0 0 0 0 0 0 0 0 0 0 0 6 0 8
89 82 40 0 25 0 0 0 0 0 0 0 0 0 0 0 0 0 0 0 0 0 0 0 0 0 0 0 0 0 0 0 0 0 0 0 0 0 0 0 5 18 28 0
45 100 25 0 0 0 0 0 0 3 0 7 0 0 2 1 0 0 0 0 0 0 0 0 0 0 0 0 0 0 0 0 0 0 0 0 0 0 0 1 15 27 41 0
22 72 8 0 0 0 0 0 0 2 0 0 0 0 0 9 0 0 103 35 7 0 0 0 0 0 0 0 0 0 0 0 0 0 0 0 0 0 0 3 20 0 0 0
0 0 0 0 0 0 0 0 8 0 0 101 62 82 91 72 79 74 23 0 0 0 0 0 1 0 0 0 0 0 0 0 0 0 0 0 0 0 0 0 0 0 0 0
0 0 0 0 0 0 0 0 1 0 25 46 74 103 92 135 95 61 29 7 0 0 0 0 10 7 0 0 0 0 0 0 0 0 0 0 0 0 0 0 0 0 0 0
0 0 12 0 0 0 10 69 81 63 27 39 24 2 5 17 35 32 66 5 3 1 12 4 13 0 0 2 0 0 0 0 0 0 0 0 0 0 0 0 0 0 0 0
0 23 19 36 3 22 61 18 30 24 19 18 3 4 1 1 22 10 18 12 1 0 0 5 0 7 9 3 0 0 0 0 0 0 0 0 0 0 0 0 0 0 0 0
0 0 1 10 2 37 24 26 18 14 4 1 3 6 26 25 20 6 27 0 0 0 2 0 0 0 3 0 0 0 0 0 0 0 0 0 0 0 0 0 0 0 0 0
0 0 0 1 0 0 0 1 6 3 10 20 11 1 0 3 2 0 0 0 2 1 0 0 2 1 0 0 0 0 0 0 0 0 0 0 0 0 0 0 0 0 0 0
CIN
-0 -0 -0 -0 -0 -0 -0 -0 -0 -0 -0 -0 -0 -0 -0 -0 -0 -0 -0 -0 -0 -0 -0 -0 -191 -94 -42 -47 -68 -107 -193 -177 -246 -191 -107 -151 -194 -120 -133 -141 -107 -90 -41 -17
-0 -0 -0 -0 -0 -0 -0 -0 -0 -0 -0 -0 -0 -0 -0 -0 -0 -0 -0 -0 -0 -0 -0 -0 -64 -116 -90 -61 -65 -83 -124 -159 -136 -189 -176 -139 -129 -96 -152 -109 -102 -73 -29 -8
-0 -0 -0 -0 -0 -0 -0 -0 -0 -0 -0 -0 -0 -0 -0 -0 -0 -0 -0 -0 -0 -0 -1 -7 -0 -91 -123 -72 -49 -53 -64 -128 -112 -100 -111 -112 -93 -38 -74 -92 -79 -67 -12 -4
-0 -0 -0 -0 -0 -0 -0 -0 -0 -0 -0 -0 -0 -0 -0 -0 -0 -0 -0 -0 -0 -0 -0 -0 -0 -0 -215 -190 -159 -137 -45 -43 -61 -88 -96 -87 -107 -75 -158 -85 -54 -33 -5 -1
-0 -0 -0 -0 -0 -0 -0 -0 -0 -0 -0 -0 -0 -0 -0 -0 -0 -0 -0 -0 -0 -0 -0 -0 -15 -16 -253 -274 -226 -191 -129 -41 -87 -58 -54 -53 -86 -42 -59 -12 -12 -3 -2 -15
-0 -0 -0 -0 -0 -0 -0 -0 -0 -0 -0 -0 -0 -0 -0 -0 -12 -3 -0 -0 -61 -213 -155 -0 -269 -221 -230 -199 -161 -196 -174 -137 -68 -43 -13 -10 -22 -37 -5 -4 -3 -2 -10 -12
-0 -0 -0 -0 -0 -0 -0 -0 -0 -0 -4 -0 -0 -0 -0 -11 -0 -0 -0 -0 -81 -266 -186 -269 -273 -285 -306 -213 -251 -338 -250 -78 -82 -97 -49 -17 -15 -47 -0 -6 -4 -1 -3 -34
-0 -0 -0 -0 -0 -0 -0 -0 -21 -0 -2 -0 -3 -0 -0 -90 -0 -0 -0 -0 -0 -5 -291 -271 -263 -273 -333 -282 -298 -421 -358 -233 -152 -111 -72 -34 -34 -16 -0 -0 -0 -16 -13 -56
-69 -0 -16 -0 -0 -0 -0 -0 -0 -0 -0 -0 -0 -0 -0 -0 -0 -153 -0 -0 -0 -0 -0 -0 -257 -214 -203 -254 -267 -359 -358 -341 -261 -198 -133 -75 -29 -0 -0 -0 -0 -0 -28 -0
-0 -0 -0 -0 -0 -0 -0 -0 -4 -1 -0 -0 -0 -1 -0 -0 -0 -0 -0 -0 -0 -0 -0 -0 -0 -177 -158 -165 -234 -320 -335 -256 -214 -171 -104 -70 -2 -0 -0 -0 -0 -25 -0 -0
-150 -58 -0 -0 -0 -0 -0 -0 -0 -8 -0 -0 -0 -0 -32 -25 -5 -0 -196 -151 -203 -0 -0 -0 -0 -213 -141 -75 -83 -156 -205 -167 -146 -124 -70 -18 -0 -0 -0 -0 -16 -33 -20 -2
-166 -96 -0 -0 -0 -0 -0 -0 -0 -1 -0 -2 -6 -0 -0 -9 -45 -55 -90 -0 -0 -0 -0 -0 -0 -0 -219 -134 -127 -69 -42 -56 -11 -13 -24 -22 -1 -0 -0 -0 -25 -20 -1 -0
-146 -136 -5 -0 -0 -0 -0 -0 -0 -0 -0 -0 -0 -0 -0 -0 -0 -0 -0 -0 -0 -0 -0 -0 -0 -0 -0 -0 -276 -209 -125 -25 -18 -1 -9 -0 -0 -24 -72 -45 -21 -0 -0 -0
-66 -96 -10 -0 -0 -0 -0 -0 -2 -1 -1 -2 -0 -0 -0 -0 -0 -44 -0 -0 -0 -0 -0 -0 -0 -0 -0 -0 -0 -149 -0 -129 -23 -7 -14 -45 -28 -0 -0 -0 -0 -0 -0 -0
-126 -100 -73 -0 -0 -0 -0 -0 -0 -0 -0 -2 -0 -0 -0 -0 -90 -65 -17 -0 -0 -2 -14 -0 -0 -0 -0 -0 -25 -0 -0 -0 -135 -155 -44 -0 -0 -0 -0 -0 -0 -14 -0 -0
-22 -0 -0 -0 -0 -0 -0 -0 -0 -0 -0 -0 -0 -0 -0 -0 -0 -0 -0 -0 -0 -3 -12 -0 -22 -27 -35 -0 -0 -0 -0 -0 -0 -0 -0 -0 -0 -0 -0 -0 -0 -0 -0 -0
-65 -0 -6 -0 -0 -0 -0 -0 -0 -0 -0 -0 -0 -0 -0 -0 -0 -0 -0 -0 -2 -11 -13 -1 -19 -0 -0 -0 -0 -0 -0 -0 -0 -0 -0 -0 -0 -0 -0 -0 -0 -0 -0 -11
-2 -2 -10 -0 -2 -0 -0 -0 -0 -0 -0 -0 -0 -0 -0 -0 -0 -0 -0 -0 -0 -0 -0 -0 -0 -0 -0 -0 -0 -0 -0 -0 -0 -0 -0 -0 -0 -0 -0 -0 -0 -0 -0 -9
-8 -1 -1 -0 -0 -0 -0 -0 -0 -18 -0 -2 -0 -0 -95 -89 -0 -0 -0 -0 -0 -0 -0 -0 -0 -0 -0 -0 -0 -0 -0 -0 -0 -0 -0 -0 -0 -0 -0 -0 -0 -0 -0 -0
-0 -2 -0 -0 -0 -0 -0 -0 -0 -3 -0 -0 -0 -0 -4 -25 -0 -0 -26 -30 -40 -0 -0 -0 -0 -0 -0 -0 -0 -0 -0 -0 -0 -0 -0 -0 -0 -0 -0 -0 -0 -0 -0 -0
-0 -0 -0 -0 -0 -0 -0 -0 -12 -0 -0 -36 -31 -13 -15 -19 -13 -23 -33 -0 -0 -0 -0 -0 -7 -0 -0 -0 -0 -0 -0 -0 -0 -0 -0 -0 -0 -0 -0 -0 -0 -0 -0 -0
-0 -0 -0 -0 -0 -0 -0 -0 -1 -0 -29 -27 -10 -10 -25 -11 -14 -34 -18 -12 -0 -0 -0 -0 -14 -7 -0 -0 -0 -0 -0 -0 -0 -0 -0 -0 -0 -0 -0 -0 -0 -0 -0 -0
-0 -0 -2 -0 -0 -0 -38 -15 -21 -43 -6 -0 -4 -18 -14 -17 -14 -1 -1 -6 -1 -13 -7 -18 -9 -3 -0 -1 -0 -0 -0 -0 -0 -0 -0 -0 -0 -0 -0 -0 -0 -0 -0 -0
-0 -3 -1 -0 -1 -5 -12 -8 -4 -0 -2 -1 -4 -9 -0 -1 -5 -6 -1 -0 -1 -0 -0 -2 -0 -2 -3 -1 -0 -0 -0 -0 -0 -0 -0 -0 -0 -0 -0 -0 -0 -0 -0 -0
-0 -0 -0 -0 -0 -1 -0 -1 -0 -2 -0 -0 -0 -0 -0 -1 -0 -2 -0 -14 -0 -3 -0 -0 -0 -0 -1 -0 -0 -0 -0 -0 -0 -0 -0 -0 -0 -0 -0 -0 -0 -0 -0 -0
-0 -0 -0 -0 -0 -0 -0 -1 -0 -0 -0 -1 -3 -1 -3 -1 -2 -0 -0 -0 -2 -17 -0 -0 -0 -1 -0 -0 -0 -0 -0 -0 -0 -0 -0 -0 -0 -0 -0 -0 -0 -0 -0 -0
Wind_Speed
nan nan nan nan nan nan nan nan nan nan nan nan nan nan nan nan nan nan nan nan nan nan nan nan nan 22 23 27 30 27 30 32 29 24 27 33 37 38 37 38 41 42 46 46
nan nan nan nan nan nan nan nan nan nan nan nan nan nan nan nan nan nan nan nan nan nan nan nan nan 23 23 25 30 30 32 33 33 32 31 36 40 39 41 43 44 46 47 50
nan nan nan nan nan nan nan nan nan nan nan nan nan nan nan nan nan nan nan nan nan nan nan nan nan 30 31 27 30 35 42 37 32 37 41 41 40 40 43 43 45 49 50 51
nan nan nan nan nan nan nan nan nan nan nan nan nan nan nan nan nan nan nan nan nan nan nan nan nan nan 30 31 32 28 33 41 35 38 43 50 44 45 45 45 46 48 49 50
nan nan nan nan nan nan nan nan nan nan nan nan nan nan nan nan nan nan nan nan nan nan nan nan nan nan nan 35 32 32 29 38 41 42 44 46 51 48 49 46 49 50 52 51
nan nan nan nan nan nan nan nan nan nan nan nan nan nan nan nan nan nan nan nan nan nan nan nan 27 30 29 34 39 37 32 35 46 46 43 45 48 47 44 47 48 50 54 54
nan nan nan nan nan nan nan nan nan nan nan nan nan nan nan nan nan nan nan nan nan nan nan nan 33 33 32 40 40 38 34 40 47 46 43 44 47 49 48 51 53 56 56 56
nan nan nan nan nan nan nan nan nan nan nan nan nan nan nan nan nan nan nan nan nan nan nan nan nan 42 42 44 45 42 37 36 41 43 44 45 45 47 49 56 55 56 58 nan
nan nan nan nan nan nan nan nan nan nan nan nan nan nan nan nan nan nan nan nan nan nan nan nan nan 45 46 43 43 41 38 36 40 41 44 44 45 53 57 58 55 59 nan nan
nan nan nan nan nan nan nan nan nan nan nan nan nan nan nan nan nan nan nan nan nan nan nan nan nan 46 45 46 43 44 43 43 45 47 46 46 49 58 60 62 63 65 nan nan
nan nan nan nan nan nan nan nan nan nan nan nan nan nan nan nan nan nan nan 22 nan nan nan nan nan nan 46 48 44 42 44 45 48 50 51 50 53 56 61 64 63 nan nan nan
nan nan nan nan nan nan nan nan nan nan nan nan nan nan nan nan nan nan nan nan nan nan nan nan nan nan nan 50 45 43 50 43 46 50 50 51 59 58 59 59 59 nan nan nan
nan nan nan nan nan nan nan nan nan nan nan nan nan nan nan nan nan nan nan nan nan nan nan nan nan nan nan nan nan 50 47 52 46 48 55 57 60 60 nan nan nan nan nan nan
nan nan nan nan nan nan nan nan nan nan nan nan nan nan nan nan nan nan nan nan nan nan nan nan nan nan nan nan nan nan nan nan 57 58 58 56 nan nan nan nan nan nan nan nan
nan nan nan nan nan nan nan nan nan nan nan nan nan nan nan nan nan nan nan nan nan nan nan nan nan nan nan nan nan nan nan nan nan nan nan nan nan nan nan nan nan nan nan nan
nan nan nan nan nan nan nan nan nan nan nan nan nan nan nan nan nan nan nan nan nan nan nan nan nan nan nan nan nan nan nan nan nan nan nan nan nan nan nan nan nan nan nan nan
nan nan nan nan nan nan nan nan nan nan nan nan nan nan nan nan nan nan nan nan nan nan nan nan nan nan nan nan nan nan nan nan nan nan nan nan nan nan nan nan nan nan nan nan
nan nan nan nan nan nan nan nan nan nan nan nan nan nan nan nan nan nan nan nan nan nan nan nan nan nan nan nan nan nan nan nan nan nan nan nan nan nan nan nan nan nan nan nan
nan 64 nan nan nan nan nan nan nan nan nan nan nan nan nan nan nan nan nan nan nan nan nan nan nan nan nan nan nan nan nan nan nan nan nan nan nan nan nan nan nan nan nan nan
nan nan nan nan nan nan nan nan nan nan nan nan nan nan nan nan nan nan 39 nan nan nan nan nan nan nan nan nan nan nan nan nan nan nan nan nan nan nan nan nan nan nan nan nan
nan nan nan nan nan nan nan nan nan nan nan 46 nan nan nan nan nan nan nan nan nan nan nan nan nan nan nan nan nan nan nan nan nan nan nan nan nan nan nan nan nan nan nan nan
nan nan nan nan nan nan nan nan nan nan nan nan nan 38 nan 49 nan nan nan nan nan nan nan nan nan nan nan nan nan nan nan nan nan nan nan nan nan nan nan nan nan nan nan nan
nan nan nan nan nan nan nan nan nan nan nan nan nan nan nan nan nan nan nan nan nan nan nan nan nan nan nan nan nan nan nan nan nan nan nan nan nan nan nan nan nan nan nan nan
nan nan nan nan nan nan nan nan nan nan nan nan nan nan nan nan nan nan nan nan nan nan nan nan nan nan nan nan nan nan nan nan nan nan nan nan nan nan nan nan nan nan nan nan
nan nan nan nan nan nan nan nan nan nan nan nan nan nan nan nan nan nan nan nan nan nan nan nan nan nan nan nan nan nan nan nan nan nan nan nan nan nan nan nan nan nan nan nan
nan nan nan nan nan nan nan nan nan nan nan nan nan nan nan nan nan nan nan nan nan nan nan nan nan nan nan nan nan nan nan nan nan nan nan nan nan nan nan nan nan nan nan nan
Wind_Direction
nan nan nan nan nan nan nan nan nan nan nan nan nan nan nan nan nan nan nan nan nan nan nan nan nan 286 284 286 301 300 297 298 292 294 302 301 306 302 305 306 311 313 312 315
nan nan nan nan nan nan nan nan nan nan nan nan nan nan nan nan nan nan nan nan nan nan nan nan nan 289 282 286 293 295 300 305 304 303 302 298 303 308 308 309 312 310 310 311
nan nan nan nan nan nan nan nan nan nan nan nan nan nan nan nan nan nan nan nan nan nan nan nan nan 277 270 264 274 300 305 308 309 306 298 294 298 303 305 308 309 308 308 306
nan nan nan nan nan nan nan nan nan nan nan nan nan nan nan nan nan nan nan nan nan nan nan nan nan nan 288 292 291 285 295 305 311 306 304 306 307 308 305 303 301 300 303 305
nan nan nan nan nan nan nan nan nan nan nan nan nan nan nan nan nan nan nan nan nan nan nan nan nan nan nan 283 284 290 287 292 313 313 307 308 309 307 305 307 309 307 303 305
nan nan nan nan nan nan nan nan nan nan nan nan nan nan nan nan nan nan nan nan nan nan nan nan 277 278 278 278 273 272 274 284 302 304 309 312 311 308 306 307 305 300 300 299
nan nan nan nan nan nan nan nan nan nan nan nan nan nan nan nan nan nan nan nan nan nan nan nan 283 282 278 282 282 281 286 286 295 301 307 310 314 313 315 311 304 302 303 300
nan nan nan nan nan nan nan nan nan nan nan nan nan nan nan nan nan nan nan nan nan nan nan nan nan 290 289 286 289 291 291 291 293 296 303 306 312 308 307 303 302 305 303 nan
nan nan nan nan nan nan nan nan nan nan nan nan nan nan nan nan nan nan nan nan nan nan nan nan nan 282 285 289 291 294 294 297 296 300 301 307 308 306 306 305 305 303 nan nan
nan nan nan nan nan nan nan nan nan nan nan nan nan nan nan nan nan nan nan nan nan nan nan nan nan 284 286 289 290 293 298 299 300 303 302 303 307 309 313 313 305 298 nan nan
nan nan nan nan nan nan nan nan nan nan nan nan nan nan nan nan nan nan nan 288 nan nan nan nan nan nan 284 283 289 297 299 302 305 306 306 308 307 306 305 303 297 nan nan nan
nan nan nan nan nan nan nan nan nan nan nan nan nan nan nan nan nan nan nan nan nan nan nan nan nan nan nan 287 291 294 298 300 302 307 309 309 301 300 298 298 298 nan nan nan
nan nan nan nan nan nan nan nan nan nan nan nan nan nan nan nan nan nan nan nan nan nan nan nan nan nan nan nan nan 300 298 299 304 302 303 302 304 306 nan nan nan nan nan nan
nan nan nan nan nan nan nan nan nan nan nan nan nan nan nan nan nan nan nan nan nan nan nan nan nan nan nan nan nan nan nan nan 298 302 305 308 nan nan nan nan nan nan nan nan
nan nan nan nan nan nan nan nan nan nan nan nan nan nan nan nan nan nan nan nan nan nan nan nan nan nan nan nan nan nan nan nan nan nan nan nan nan nan nan nan nan nan nan nan
nan nan nan nan nan nan nan nan nan nan nan nan nan nan nan nan nan nan nan nan nan nan nan nan nan nan nan nan nan nan nan nan nan nan nan nan nan nan nan nan nan nan nan nan
nan nan nan nan nan nan nan nan nan nan nan nan nan nan nan nan nan nan nan nan nan nan nan nan nan nan nan nan nan nan nan nan nan nan nan nan nan nan nan nan nan nan nan nan
nan nan nan nan nan nan nan nan nan nan nan nan nan nan nan nan nan nan nan nan nan nan nan nan nan nan nan nan nan nan nan nan nan nan nan nan nan nan nan nan nan nan nan nan
nan 272 nan nan nan nan nan nan nan nan nan nan nan nan nan nan nan nan nan nan nan nan nan nan nan nan nan nan nan nan nan nan nan nan nan nan nan nan nan nan nan nan nan nan
nan nan nan nan nan nan nan nan nan nan nan nan nan nan nan nan nan nan 278 nan nan nan nan nan nan nan nan nan nan nan nan nan nan nan nan nan nan nan nan nan nan nan nan nan
nan nan nan nan nan nan nan nan nan nan nan 281 nan nan nan nan nan nan nan nan nan nan nan nan nan nan nan nan nan nan nan nan nan nan nan nan nan nan nan nan nan nan nan nan
nan nan nan nan nan nan nan nan nan nan nan nan nan 265 nan 279 nan nan nan nan nan nan nan nan nan nan nan nan nan nan nan nan nan nan nan nan nan nan nan nan nan nan nan nan
nan nan nan nan nan nan nan nan nan nan nan nan nan nan nan nan nan nan nan nan nan nan nan nan nan nan nan nan nan nan nan nan nan nan nan nan nan nan nan nan nan nan nan nan
nan nan nan nan nan nan nan nan nan nan nan nan nan nan nan nan nan nan nan nan nan nan nan nan nan nan nan nan nan nan nan nan nan nan nan nan nan nan nan nan nan nan nan nan
nan nan nan nan nan nan nan nan nan nan nan nan nan nan nan nan nan nan nan nan nan nan nan nan nan nan nan nan nan nan nan nan nan nan nan nan nan nan nan nan nan nan nan nan
nan nan nan nan nan nan nan nan nan nan nan nan nan nan nan nan nan nan nan nan nan nan nan nan nan nan nan nan nan nan nan nan nan nan nan nan nan nan nan nan nan nan nan nan